Regional Weather Roundup
Issued by NWS

Home | Current Version | Previous Version | Text Only | Print | Product List | Glossary Off
Versions: 1 2 3 4 5 6 7 8 9 10 11 12 13 14 15 16 17 18 19 20 21 22 23 24 25 26 27 28 29 30 31 32 33 34 35 36 37 38 39 40 41 42 43 44 45 46 47 48 49 50

169
ASUS45 KCYS 210410
RWRWY

WYOMING REGIONAL WEATHER ROUNDUP
NATIONAL WEATHER SERVICE CHEYENNE WY
1000 PM MDT WED SEP 20 2017

NOTE:  "FAIR" INDICATES FEW OR NO CLOUDS BELOW 12,000 FEET
WITH NO SIGNIFICANT WEATHER AND/OR OBSTRUCTIONS TO VISIBILITY.

WYZ001-210500-
YELLOWSTONE NATIONAL PARK

CITY           SKY/WX    TMP DP  RH WIND       PRES   REMARKS
LK YELLOWSTONE   N/A     34  34 100 CALM      29.84F
W YELLOWSTONE  NOT AVBL

$$
WYZ002>013-054>058-071-098>099-210500-
NORTHERN WYOMING

CITY           SKY/WX    TMP DP  RH WIND       PRES   REMARKS
JACKSON        CLOUDY    43  38  82 VRB5      29.80F
CODY           FAIR      52  32  46 SW8       29.73F
GREYBULL       FAIR      58  33  39 CALM      29.67F
WORLAND        MOCLDY    60  33  36 SE10      29.69F
SHERIDAN       FAIR      60  29  30 S9        29.68F
BUFFALO        FAIR      52  25  35 E5        29.76F
GILLETTE       FAIR      58  33  39 S12       29.75S
HULETT         FAIR      59  30  33 S7        29.77F
NEWCASTLE      FAIR      61  27  27 E13G18    29.81S

$$
WYZ014>020-022>026-101>103-210500-
CENTRAL WYOMING

CITY           SKY/WX    TMP DP  RH WIND       PRES   REMARKS
BIG PINEY      CLOUDY    47  35  63 NE7       29.81F
PINEDALE       CLOUDY    45  34  65 CALM      29.84S
DUBOIS         DRIZZLE   39  34  81 NW9       29.81S WCI  33
LANDER           N/A    N/A N/A N/A MISG      29.72F
RIVERTON       FAIR      55  28  35 CALM      29.73F
CASPER         FAIR      52  34  50 E7        29.80F
DOUGLAS        CLOUDY    59  33  37 E6        29.80F

$$
WYZ021-027>030-104>119-210500-
SOUTHERN WYOMING

CITY           SKY/WX    TMP DP  RH WIND       PRES   REMARKS
EVANSTON       CLOUDY    53  35  50 N9        29.77S
KEMMERER       LGT RAIN  48  36  61 N9        29.82R
FORT BRIDGER   CLOUDY    53  37  54 N5        29.81F
ROCK SPRINGS   FAIR      50  35  56 SE10      29.79F
DIXON          FAIR      55  37  50 E13       29.87F
RAWLINS        FAIR      47  37  68 NE7       29.86S
SARATOGA       FAIR      50  37  62 SE6       29.88F
LARAMIE        FAIR      50  29  44 SE12      29.92F
CHEYENNE       FAIR      54  29  38 SE8       29.90F
TORRINGTON     FAIR      60  33  36 E14       29.80S
PINE BLUFFS    FAIR      61  28  29 SE18G28   29.87F

$$




USA.gov is the U.S. government's official web portal to all federal, state and local government web resources and services.